Time,TemperatureF,DewpointF,PressureIn,WindDirection,WindDirectionDegrees,WindSpeedMPH,WindSpeedGustMPH,Humidity,HourlyPrecipIn,Conditions,Clouds,dailyrainin,SoftwareType,DateUTC
2013-11-28 00:01:00,34.5,23.6,29.89,WSW,248,19.0,19.0,64,0.00,,,0.00,VWS V13.00,2013-11-28 05:01:00,
2013-11-28 00:03:00,34.5,23.6,29.89,WSW,248,10.2,19.0,64,0.00,,,0.00,VWS V13.00,2013-11-28 05:03:00,
2013-11-28 00:08:00,34.3,23.0,29.89,WNW,292,16.1,19.0,63,0.00,,,0.00,VWS V13.00,2013-11-28 05:08:00,
2013-11-28 00:13:00,34.1,23.2,29.90,South,180,2.4,19.0,64,0.00,,,0.00,VWS V13.00,2013-11-28 05:13:00,
2013-11-28 00:18:00,33.9,22.6,29.90,NW,315,1.5,19.0,63,0.00,,,0.00,VWS V13.00,2013-11-28 05:18:00,
2013-11-28 00:23:00,33.8,22.5,29.91,NNE,22,1.7,5.8,63,0.00,,,0.00,VWS V13.00,2013-11-28 05:23:00,
2013-11-28 00:28:00,33.6,22.4,29.91,West,270,17.6,17.6,63,0.00,,,0.00,VWS V13.00,2013-11-28 05:28:00,
2013-11-28 00:33:00,33.6,22.4,29.91,South,180,8.5,17.6,63,0.00,,,0.00,VWS V13.00,2013-11-28 05:33:00,
2013-11-28 00:38:00,33.6,22.4,29.92,NW,315,2.0,17.6,63,0.00,,,0.00,VWS V13.00,2013-11-28 05:38:00,
2013-11-28 00:43:00,33.4,22.2,29.92,South,180,5.8,17.0,63,0.00,,,0.00,VWS V13.00,2013-11-28 05:43:00,
2013-11-28 00:48:00,33.2,22.4,29.93,ENE,68,6.2,17.0,64,0.00,,,0.00,VWS V13.00,2013-11-28 05:48:00,
2013-11-28 00:53:00,33.0,21.8,29.93,West,270,8.2,17.0,63,0.00,,,0.00,VWS V13.00,2013-11-28 05:53:00,
2013-11-28 00:58:00,33.0,21.8,29.93,West,270,17.0,17.0,63,0.00,,,0.00,VWS V13.00,2013-11-28 05:58:00,
2013-11-28 01:03:00,33.0,21.4,29.94,West,270,5.1,7.1,62,0.00,,,0.00,VWS V13.00,2013-11-28 06:03:00,
2013-11-28 01:08:00,32.9,21.7,29.94,West,270,19.6,19.6,63,0.00,,,0.00,VWS V13.00,2013-11-28 06:08:00,
2013-11-28 01:13:00,32.7,21.5,29.94,West,270,8.2,19.6,63,0.00,,,0.00,VWS V13.00,2013-11-28 06:13:00,
2013-11-28 01:18:00,32.7,21.5,29.94,ENE,68,3.8,19.6,63,0.00,,,0.00,VWS V13.00,2013-11-28 06:18:00,
2013-11-28 01:23:00,32.5,21.3,29.95,West,270,6.7,8.2,63,0.00,,,0.00,VWS V13.00,2013-11-28 06:23:00,
2013-11-28 01:29:00,32.5,21.3,29.95,West,270,3.3,13.8,63,0.00,,,0.00,VWS V13.00,2013-11-28 06:29:00,
2013-11-28 01:34:00,32.3,20.8,29.95,NE,45,3.5,13.8,62,0.00,,,0.00,VWS V13.00,2013-11-28 06:34:00,
2013-11-28 01:39:00,32.3,20.8,29.96,WNW,292,4.0,13.8,62,0.00,,,0.00,VWS V13.00,2013-11-28 06:39:00,
2013-11-28 01:44:00,32.1,20.6,29.96,NNW,338,6.2,21.9,62,0.00,,,0.00,VWS V13.00,2013-11-28 06:44:00,
2013-11-28 01:49:00,32.1,20.6,29.97,West,270,9.8,21.9,62,0.00,,,0.00,VWS V13.00,2013-11-28 06:49:00,
2013-11-28 01:54:00,32.1,20.6,29.97,WNW,292,5.3,21.9,62,0.00,,,0.00,VWS V13.00,2013-11-28 06:54:00,
2013-11-28 01:59:00,32.1,20.6,29.97,NW,315,0.0,21.9,62,0.00,,,0.00,VWS V13.00,2013-11-28 06:59:00,
2013-11-28 02:04:00,32.1,20.6,29.98,West,270,9.6,19.6,62,0.00,,,0.00,VWS V13.00,2013-11-28 07:04:00,
2013-11-28 02:09:00,32.1,20.6,29.98,WSW,248,18.3,19.6,62,0.00,,,0.00,VWS V13.00,2013-11-28 07:09:00,
2013-11-28 02:14:00,32.1,20.2,29.99,West,270,5.8,19.6,61,0.00,,,0.00,VWS V13.00,2013-11-28 07:14:00,
2013-11-28 02:19:00,32.1,20.6,29.99,WSW,248,12.9,19.6,62,0.00,,,0.00,VWS V13.00,2013-11-28 07:19:00,
2013-11-28 02:24:00,32.1,20.6,29.99,SW,225,5.8,12.5,62,0.00,,,0.00,VWS V13.00,2013-11-28 07:24:00,
2013-11-28 02:29:00,32.1,20.6,30.00,West,270,10.7,12.5,62,0.00,,,0.00,VWS V13.00,2013-11-28 07:29:00,
2013-11-28 02:34:00,32.1,20.2,30.01,West,270,9.1,12.5,61,0.00,,,0.00,VWS V13.00,2013-11-28 07:34:00,
2013-11-28 02:39:00,32.0,20.1,30.01,West,270,11.1,14.0,61,0.00,,,0.00,VWS V13.00,2013-11-28 07:39:00,
2013-11-28 02:44:00,32.1,19.8,30.02,SSW,202,7.3,11.1,60,0.00,,,0.00,VWS V13.00,2013-11-28 07:44:00,
2013-11-28 02:49:00,32.0,19.7,30.02,SW,225,19.6,19.6,60,0.00,,,0.00,VWS V13.00,2013-11-28 07:49:00,
2013-11-28 02:54:00,32.1,19.8,30.03,WSW,248,7.8,19.6,60,0.00,,,0.00,VWS V13.00,2013-11-28 07:54:00,
2013-11-28 02:59:00,32.0,19.7,30.03,SW,225,17.0,19.6,60,0.00,,,0.00,VWS V13.00,2013-11-28 07:59:00,
2013-11-28 03:04:00,32.1,19.8,30.03,West,270,7.1,21.9,60,0.00,,,0.00,VWS V13.00,2013-11-28 08:04:00,
2013-11-28 03:09:00,31.8,19.5,30.04,NW,315,3.8,21.9,60,0.00,,,0.00,VWS V13.00,2013-11-28 08:09:00,
2013-11-28 03:14:00,31.8,19.5,30.05,WNW,292,3.3,21.9,60,0.00,,,0.00,VWS V13.00,2013-11-28 08:14:00,
2013-11-28 03:19:00,31.8,19.5,30.06,SW,225,9.1,21.9,60,0.00,,,0.00,VWS V13.00,2013-11-28 08:19:00,
2013-11-28 03:24:00,31.8,19.5,30.06,WSW,248,8.5,9.1,60,0.00,,,0.00,VWS V13.00,2013-11-28 08:24:00,
2013-11-28 03:29:00,31.8,19.5,30.06,SSW,202,0.0,17.6,60,0.00,,,0.00,VWS V13.00,2013-11-28 08:29:00,
2013-11-28 03:34:00,31.8,19.5,30.07,NW,315,0.0,17.6,60,0.00,,,0.00,VWS V13.00,2013-11-28 08:34:00,
2013-11-28 03:40:00,31.8,19.5,30.07,WSW,248,13.8,17.6,60,0.00,,,0.00,VWS V13.00,2013-11-28 08:40:00,
2013-11-28 03:45:00,31.8,19.5,30.07,SW,225,7.3,13.8,60,0.00,,,0.00,VWS V13.00,2013-11-28 08:45:00,
2013-11-28 03:50:00,31.8,19.9,30.07,WSW,248,1.7,13.8,61,0.00,,,0.00,VWS V13.00,2013-11-28 08:50:00,
2013-11-28 03:55:00,31.8,19.9,30.08,West,270,12.0,13.8,61,0.00,,,0.00,VWS V13.00,2013-11-28 08:55:00,
2013-11-28 04:00:00,31.8,19.9,30.08,WNW,292,3.1,14.3,61,0.00,,,0.00,VWS V13.00,2013-11-28 09:00:00,
2013-11-28 04:05:00,31.8,19.9,30.09,SW,225,4.9,4.9,61,0.00,,,0.00,VWS V13.00,2013-11-28 09:05:00,
2013-11-28 04:10:00,31.8,19.9,30.09,West,270,4.9,9.1,61,0.00,,,0.00,VWS V13.00,2013-11-28 09:10:00,
2013-11-28 04:15:00,31.8,19.5,30.09,NW,315,13.1,13.1,60,0.00,,,0.00,VWS V13.00,2013-11-28 09:15:00,
2013-11-28 04:20:00,31.6,19.3,30.09,WNW,292,8.2,13.1,60,0.00,,,0.00,VWS V13.00,2013-11-28 09:20:00,
2013-11-28 04:25:00,31.6,19.3,30.10,WNW,292,7.6,18.1,60,0.00,,,0.00,VWS V13.00,2013-11-28 09:25:00,
2013-11-28 04:30:00,31.6,19.7,30.11,NNE,22,4.4,18.1,61,0.00,,,0.00,VWS V13.00,2013-11-28 09:30:00,
2013-11-28 04:35:00,31.6,19.7,30.11,WNW,292,0.0,18.1,61,0.00,,,0.00,VWS V13.00,2013-11-28 09:35:00,
2013-11-28 04:40:00,31.6,19.7,30.12,NNE,22,4.2,18.1,61,0.00,,,0.00,VWS V13.00,2013-11-28 09:40:00,
2013-11-28 04:45:00,31.6,19.7,30.12,West,270,10.2,21.9,61,0.00,,,0.00,VWS V13.00,2013-11-28 09:45:00,
2013-11-28 04:50:00,31.6,20.1,30.12,WSW,248,3.3,21.9,62,0.00,,,0.00,VWS V13.00,2013-11-28 09:50:00,
2013-11-28 04:55:00,31.6,20.1,30.12,SW,225,13.4,21.9,62,0.00,,,0.00,VWS V13.00,2013-11-28 09:55:00,
2013-11-28 05:00:00,31.6,20.1,30.13,North,0,0.0,21.9,62,0.00,,,0.00,VWS V13.00,2013-11-28 10:00:00,
2013-11-28 05:05:00,31.6,20.1,30.13,WSW,248,6.2,6.2,62,0.00,,,0.00,VWS V13.00,2013-11-28 10:05:00,
2013-11-28 05:10:00,31.6,20.1,30.14,WSW,248,3.5,15.2,62,0.00,,,0.00,VWS V13.00,2013-11-28 10:10:00,
2013-11-28 05:15:00,31.6,20.1,30.14,NNW,338,8.2,15.2,62,0.00,,,0.00,VWS V13.00,2013-11-28 10:15:00,
2013-11-28 05:20:00,31.4,19.9,30.15,WNW,292,15.8,15.8,62,0.00,,,0.00,VWS V13.00,2013-11-28 10:20:00,
2013-11-28 05:25:00,31.6,20.1,30.16,SSW,202,4.2,15.8,62,0.00,,,0.00,VWS V13.00,2013-11-28 10:25:00,
2013-11-28 05:30:00,31.6,20.5,30.17,WNW,292,4.4,15.8,63,0.00,,,0.00,VWS V13.00,2013-11-28 10:30:00,
2013-11-28 05:35:00,31.6,20.5,30.17,NNE,22,5.1,15.8,63,0.00,,,0.00,VWS V13.00,2013-11-28 10:35:00,
2013-11-28 05:40:00,31.2,20.1,30.17,SW,225,9.8,9.8,63,0.00,,,0.00,VWS V13.00,2013-11-28 10:40:00,
2013-11-28 05:45:00,31.2,20.1,30.18,NW,315,2.0,9.8,63,0.00,,,0.00,VWS V13.00,2013-11-28 10:45:00,
2013-11-28 05:50:00,31.2,20.1,30.17,WNW,292,14.9,14.9,63,0.00,,,0.00,VWS V13.00,2013-11-28 10:50:00,
2013-11-28 05:55:00,31.2,20.1,30.18,NNW,338,0.0,15.2,63,0.00,,,0.00,VWS V13.00,2013-11-28 10:55:00,
2013-11-28 06:00:00,31.2,20.1,30.18,WSW,248,5.1,5.1,63,0.00,,,0.00,VWS V13.00,2013-11-28 11:00:00,
2013-11-28 06:05:00,31.2,20.1,30.18,NNW,338,1.5,5.1,63,0.00,,,0.00,VWS V13.00,2013-11-28 11:05:00,
2013-11-28 06:10:00,31.2,20.5,30.19,West,270,2.4,5.1,64,0.00,,,0.00,VWS V13.00,2013-11-28 11:10:00,
2013-11-28 06:15:00,31.2,20.5,30.19,WNW,292,6.2,6.2,64,0.00,,,0.00,VWS V13.00,2013-11-28 11:15:00,
2013-11-28 06:20:00,31.1,20.4,30.19,WNW,292,5.5,5.5,64,0.00,,,0.00,VWS V13.00,2013-11-28 11:20:00,
2013-11-28 06:25:00,31.1,20.4,30.19,West,270,4.0,6.2,64,0.00,,,0.00,VWS V13.00,2013-11-28 11:25:00,
2013-11-28 06:30:00,31.1,20.4,30.20,West,270,1.5,6.2,64,0.00,,,0.00,VWS V13.00,2013-11-28 11:30:00,
2013-11-28 06:35:00,31.1,20.4,30.20,SW,225,6.9,14.9,64,0.00,,,0.00,VWS V13.00,2013-11-28 11:35:00,
2013-11-28 06:41:00,31.1,20.4,30.20,SSW,202,0.0,0.0,64,0.00,,,0.00,VWS V13.00,2013-11-28 11:41:00,
2013-11-28 06:46:00,31.1,20.4,30.20,West,270,12.9,12.9,64,0.00,,,0.00,VWS V13.00,2013-11-28 11:46:00,
2013-11-28 06:51:00,31.1,20.4,30.20,SSE,158,10.7,12.9,64,0.00,,,0.00,VWS V13.00,2013-11-28 11:51:00,
2013-11-28 06:56:00,31.1,20.4,30.21,WSW,248,1.5,12.9,64,0.00,,,0.00,VWS V13.00,2013-11-28 11:56:00,
2013-11-28 07:01:00,31.2,20.5,30.21,WNW,292,6.0,6.0,64,0.00,,,0.00,VWS V13.00,2013-11-28 12:01:00,
2013-11-28 07:06:00,31.1,20.4,30.22,WSW,248,7.3,7.3,64,0.00,,,0.00,VWS V13.00,2013-11-28 12:06:00,
2013-11-28 07:11:00,31.1,20.4,30.22,WNW,292,1.5,7.3,64,0.00,,,0.00,VWS V13.00,2013-11-28 12:11:00,
2013-11-28 07:16:00,31.2,20.5,30.22,West,270,0.8,7.3,64,0.00,,,0.00,VWS V13.00,2013-11-28 12:16:00,
2013-11-28 07:21:00,31.2,20.5,30.22,West,270,8.5,8.5,64,0.00,,,0.00,VWS V13.00,2013-11-28 12:21:00,
2013-11-28 07:26:00,31.2,20.5,30.23,NNE,22,1.5,8.5,64,0.00,,,0.00,VWS V13.00,2013-11-28 12:26:00,
2013-11-28 07:31:00,31.2,20.5,30.23,West,270,6.0,8.5,64,0.00,,,0.00,VWS V13.00,2013-11-28 12:31:00,
2013-11-28 07:36:00,31.4,20.6,30.24,WNW,292,4.4,8.5,64,0.00,,,0.00,VWS V13.00,2013-11-28 12:36:00,
2013-11-28 07:41:00,31.6,20.8,30.24,NW,315,4.4,4.4,64,0.00,,,0.00,VWS V13.00,2013-11-28 12:41:00,
2013-11-28 07:46:00,31.6,20.8,30.24,WSW,248,0.0,16.5,64,0.00,,,0.00,VWS V13.00,2013-11-28 12:46:00,
2013-11-28 07:51:00,31.8,21.0,30.25,West,270,6.9,16.5,64,0.00,,,0.00,VWS V13.00,2013-11-28 12:51:00,
2013-11-28 07:56:00,31.8,20.7,30.25,NE,45,0.0,16.5,63,0.00,,,0.00,VWS V13.00,2013-11-28 12:56:00,
2013-11-28 08:01:00,31.8,20.7,30.26,West,270,1.5,1.5,63,0.00,,,0.00,VWS V13.00,2013-11-28 13:01:00,
2013-11-28 08:06:00,31.8,20.7,30.26,WSW,248,0.0,3.3,63,0.00,,,0.00,VWS V13.00,2013-11-28 13:06:00,
2013-11-28 08:11:00,32.1,20.9,30.26,ENE,68,3.5,3.5,63,0.00,,,0.00,VWS V13.00,2013-11-28 13:11:00,
2013-11-28 08:16:00,32.7,21.1,30.26,SW,225,10.9,12.3,62,0.00,,,0.00,VWS V13.00,2013-11-28 13:16:00,
2013-11-28 08:21:00,36.6,25.2,30.26,West,270,16.7,16.7,63,0.00,,,0.00,VWS V13.00,2013-11-28 13:21:00,
2013-11-28 08:26:00,44.0,28.9,30.26,West,270,7.3,16.7,55,0.00,,,0.00,VWS V13.00,2013-11-28 13:26:00,
2013-11-28 08:31:00,47.8,30.1,30.27,West,270,9.6,16.7,50,0.00,,,0.00,VWS V13.00,2013-11-28 13:31:00,
2013-11-28 08:36:00,49.8,29.9,30.26,NW,315,13.8,16.7,46,0.00,,,0.00,VWS V13.00,2013-11-28 13:36:00,
2013-11-28 08:41:00,51.9,28.4,30.27,NW,315,12.5,12.5,40,0.00,,,0.00,VWS V13.00,2013-11-28 13:41:00,
2013-11-28 08:46:00,52.3,28.7,30.27,NNW,338,10.2,12.5,40,0.00,,,0.00,VWS V13.00,2013-11-28 13:46:00,
2013-11-28 08:51:00,53.4,29.1,30.27,WNW,292,6.4,12.5,39,0.00,,,0.00,VWS V13.00,2013-11-28 13:51:00,
2013-11-28 08:56:00,55.2,28.7,30.28,NNW,338,2.9,12.5,36,0.00,,,0.00,VWS V13.00,2013-11-28 13:56:00,
2013-11-28 09:01:00,55.7,29.2,30.27,NNW,338,6.4,6.4,36,0.00,,,0.00,VWS V13.00,2013-11-28 14:01:00,
2013-11-28 09:06:00,55.0,25.7,30.27,West,270,3.8,7.6,32,0.00,,,0.00,VWS V13.00,2013-11-28 14:06:00,
2013-11-28 09:11:00,53.7,25.3,30.28,North,0,7.1,9.6,33,0.00,,,0.00,VWS V13.00,2013-11-28 14:11:00,
2013-11-28 09:16:00,53.4,24.3,30.28,NNW,338,14.3,14.3,32,0.00,,,0.00,VWS V13.00,2013-11-28 14:16:00,
2013-11-28 09:21:00,53.2,24.9,30.28,NNW,338,8.2,8.2,33,0.00,,,0.00,VWS V13.00,2013-11-28 14:21:00,
2013-11-28 09:26:00,52.7,24.4,30.28,WNW,292,17.2,17.2,33,0.00,,,0.00,VWS V13.00,2013-11-28 14:26:00,
2013-11-28 09:32:00,51.2,22.4,30.28,NW,315,15.4,17.2,32,0.00,,,0.00,VWS V13.00,2013-11-28 14:32:00,
2013-11-28 09:37:00,51.2,23.8,30.28,NNW,338,10.5,17.2,34,0.00,,,0.00,VWS V13.00,2013-11-28 14:37:00,
2013-11-28 09:42:00,52.7,24.4,30.28,NNW,338,15.6,15.6,33,0.00,,,0.00,VWS V13.00,2013-11-28 14:42:00,
2013-11-28 09:47:00,52.5,23.5,30.28,NW,315,10.2,15.6,32,0.00,,,0.00,VWS V13.00,2013-11-28 14:47:00,
2013-11-28 09:52:00,49.6,22.4,30.29,NW,315,6.2,15.6,34,0.00,,,0.00,VWS V13.00,2013-11-28 14:52:00,
2013-11-28 09:57:00,44.7,20.0,30.29,South,180,4.9,15.6,37,0.00,,,0.00,VWS V13.00,2013-11-28 14:57:00,
2013-11-28 10:02:00,42.0,18.9,30.30,WNW,292,4.4,4.4,39,0.00,,,0.00,VWS V13.00,2013-11-28 15:02:00,
2013-11-28 10:07:00,40.2,17.8,30.31,North,0,13.1,13.1,40,0.00,,,0.00,VWS V13.00,2013-11-28 15:07:00,
2013-11-28 10:12:00,38.3,17.2,30.30,NNW,338,8.0,13.1,42,0.00,,,0.00,VWS V13.00,2013-11-28 15:12:00,
2013-11-28 10:17:00,37.4,17.5,30.30,NW,315,9.6,13.1,44,0.00,,,0.00,VWS V13.00,2013-11-28 15:17:00,
2013-11-28 10:22:00,37.0,17.6,30.30,NNW,338,0.0,0.0,45,0.00,,,0.00,VWS V13.00,2013-11-28 15:22:00,
2013-11-28 10:27:00,36.6,17.8,30.30,NW,315,7.3,8.0,46,0.00,,,0.00,VWS V13.00,2013-11-28 15:27:00,
2013-11-28 10:32:00,36.6,18.3,30.30,WNW,292,7.6,10.7,47,0.00,,,0.00,VWS V13.00,2013-11-28 15:32:00,
2013-11-28 10:37:00,36.5,18.2,30.30,North,0,14.7,14.7,47,0.00,,,0.00,VWS V13.00,2013-11-28 15:37:00,
2013-11-28 10:42:00,36.5,18.7,30.30,WNW,292,14.5,15.8,48,0.00,,,0.00,VWS V13.00,2013-11-28 15:42:00,
2013-11-28 10:47:00,36.3,18.5,30.30,NNW,338,7.1,15.8,48,0.00,,,0.00,VWS V13.00,2013-11-28 15:47:00,
2013-11-28 10:52:00,36.5,18.7,30.31,NW,315,19.4,19.4,48,0.00,,,0.00,VWS V13.00,2013-11-28 15:52:00,
2013-11-28 10:57:00,36.6,18.8,30.30,NW,315,0.0,19.4,48,0.00,,,0.00,VWS V13.00,2013-11-28 15:57:00,
2013-11-28 11:02:00,36.8,19.0,30.31,NNE,22,13.4,13.4,48,0.00,,,0.00,VWS V13.00,2013-11-28 16:02:00,
2013-11-28 11:07:00,37.0,18.7,30.31,SSW,202,7.6,13.4,47,0.00,,,0.00,VWS V13.00,2013-11-28 16:07:00,
2013-11-28 11:12:00,37.2,18.8,30.31,NNW,338,8.2,13.4,47,0.00,,,0.00,VWS V13.00,2013-11-28 16:12:00,
2013-11-28 11:17:00,39.9,21.8,30.32,NNW,338,10.7,13.4,48,0.00,,,0.00,VWS V13.00,2013-11-28 16:17:00,
2013-11-28 11:22:00,41.7,21.4,30.31,NNW,338,13.8,13.8,44,0.00,,,0.00,VWS V13.00,2013-11-28 16:22:00,
2013-11-28 11:27:00,43.1,22.1,30.32,NNW,338,10.9,13.8,43,0.00,,,0.00,VWS V13.00,2013-11-28 16:27:00,
2013-11-28 11:32:00,45.6,22.7,30.31,NNW,338,12.3,13.8,40,0.00,,,0.00,VWS V13.00,2013-11-28 16:32:00,
2013-11-28 11:37:00,47.1,22.8,30.30,WNW,292,6.7,13.8,38,0.00,,,0.00,VWS V13.00,2013-11-28 16:37:00,
2013-11-28 11:42:00,48.9,23.8,30.30,NNE,22,7.6,12.5,37,0.00,,,0.00,VWS V13.00,2013-11-28 16:42:00,
2013-11-28 11:47:00,50.7,23.4,30.31,WNW,292,10.5,12.5,34,0.00,,,0.00,VWS V13.00,2013-11-28 16:47:00,
2013-11-28 11:52:00,51.6,23.5,30.31,NNW,338,1.5,12.5,33,0.00,,,0.00,VWS V13.00,2013-11-28 16:52:00,
2013-11-28 11:57:00,52.3,24.1,30.31,West,270,2.4,12.5,33,0.00,,,0.00,VWS V13.00,2013-11-28 16:57:00,
2013-11-28 12:02:00,53.2,23.4,30.31,NNW,338,9.8,13.8,31,0.00,,,0.00,VWS V13.00,2013-11-28 17:02:00,
2013-11-28 12:07:00,52.7,22.9,30.31,WNW,292,3.1,13.8,31,0.00,,,0.00,VWS V13.00,2013-11-28 17:07:00,
2013-11-28 12:12:00,52.1,22.4,30.31,NNW,338,8.0,13.8,31,0.00,,,0.00,VWS V13.00,2013-11-28 17:12:00,
2013-11-28 12:17:00,50.9,22.1,30.31,NNW,338,8.5,13.8,32,0.00,,,0.00,VWS V13.00,2013-11-28 17:17:00,
2013-11-28 12:22:00,50.9,21.4,30.31,NNW,338,1.5,12.7,31,0.00,,,0.00,VWS V13.00,2013-11-28 17:22:00,
2013-11-28 12:27:00,51.0,22.2,30.30,WNW,292,4.4,12.7,32,0.00,,,0.00,VWS V13.00,2013-11-28 17:27:00,
2013-11-28 12:33:00,51.6,22.7,30.31,WNW,292,9.1,12.7,32,0.00,,,0.00,VWS V13.00,2013-11-28 17:33:00,
2013-11-28 12:38:00,51.4,21.8,30.31,NNW,338,9.3,12.7,31,0.00,,,0.00,VWS V13.00,2013-11-28 17:38:00,
2013-11-28 12:43:00,50.7,21.2,30.30,NNW,338,8.5,8.5,31,0.00,,,0.00,VWS V13.00,2013-11-28 17:43:00,
2013-11-28 12:48:00,50.1,21.4,30.30,SE,135,4.2,8.5,32,0.00,,,0.00,VWS V13.00,2013-11-28 17:48:00,
2013-11-28 12:53:00,50.7,21.2,30.31,North,0,7.6,9.8,31,0.00,,,0.00,VWS V13.00,2013-11-28 17:53:00,
2013-11-28 12:58:00,50.5,21.8,30.31,NW,315,4.4,9.8,32,0.00,,,0.00,VWS V13.00,2013-11-28 17:58:00,
2013-11-28 13:03:00,49.8,20.4,30.31,WNW,292,6.2,8.5,31,0.00,,,0.00,VWS V13.00,2013-11-28 18:03:00,
2013-11-28 13:08:00,49.4,20.8,30.31,WNW,292,6.9,8.5,32,0.00,,,0.00,VWS V13.00,2013-11-28 18:08:00,
2013-11-28 13:13:00,49.2,20.6,30.31,NE,45,3.5,10.9,32,0.00,,,0.00,VWS V13.00,2013-11-28 18:13:00,
2013-11-28 13:18:00,49.2,20.6,30.31,North,0,6.9,12.0,32,0.00,,,0.00,VWS V13.00,2013-11-28 18:18:00,
2013-11-28 13:23:00,49.6,21.0,30.32,NW,315,3.5,4.2,32,0.00,,,0.00,VWS V13.00,2013-11-28 18:23:00,
2013-11-28 13:28:00,49.8,21.9,30.32,NW,315,4.6,13.4,33,0.00,,,0.00,VWS V13.00,2013-11-28 18:28:00,
2013-11-28 13:33:00,50.5,22.5,30.32,SW,225,2.9,13.4,33,0.00,,,0.00,VWS V13.00,2013-11-28 18:33:00,
2013-11-28 13:38:00,51.2,23.8,30.32,East,90,1.7,13.4,34,0.00,,,0.00,VWS V13.00,2013-11-28 18:38:00,
2013-11-28 13:43:00,51.6,23.5,30.32,WNW,292,4.9,4.9,33,0.00,,,0.00,VWS V13.00,2013-11-28 18:43:00,
2013-11-28 13:48:00,52.1,24.6,30.32,North,0,2.9,9.1,34,0.00,,,0.00,VWS V13.00,2013-11-28 18:48:00,
2013-11-28 13:53:00,52.3,24.8,30.33,West,270,1.1,9.1,34,0.00,,,0.00,VWS V13.00,2013-11-28 18:53:00,
2013-11-28 13:58:00,51.9,23.0,30.32,NNE,22,3.3,9.1,32,0.00,,,0.00,VWS V13.00,2013-11-28 18:58:00,
2013-11-28 14:03:00,50.1,22.8,30.33,NW,315,12.9,12.9,34,0.00,,,0.00,VWS V13.00,2013-11-28 19:03:00,
2013-11-28 14:08:00,48.9,21.8,30.33,NNW,338,9.6,12.9,34,0.00,,,0.00,VWS V13.00,2013-11-28 19:08:00,
2013-11-28 14:13:00,47.8,21.5,30.33,NW,315,2.4,12.9,35,0.00,,,0.00,VWS V13.00,2013-11-28 19:13:00,
2013-11-28 14:18:00,46.9,21.4,30.33,WNW,292,6.9,12.9,36,0.00,,,0.00,VWS V13.00,2013-11-28 19:18:00,
2013-11-28 14:23:00,46.0,20.6,30.34,NNW,338,8.9,8.9,36,0.00,,,0.00,VWS V13.00,2013-11-28 19:23:00,
2013-11-28 14:28:00,45.6,20.9,30.34,WNW,292,3.5,8.9,37,0.00,,,0.00,VWS V13.00,2013-11-28 19:28:00,
2013-11-28 14:33:00,46.0,21.8,30.34,NW,315,10.0,10.0,38,0.00,,,0.00,VWS V13.00,2013-11-28 19:33:00,
2013-11-28 14:38:00,46.0,21.8,30.34,West,270,9.3,10.0,38,0.00,,,0.00,VWS V13.00,2013-11-28 19:38:00,
2013-11-28 14:43:00,46.0,21.8,30.34,WSW,248,8.9,8.9,38,0.00,,,0.00,VWS V13.00,2013-11-28 19:43:00,
2013-11-28 14:48:00,46.0,21.8,30.34,West,270,4.4,8.9,38,0.00,,,0.00,VWS V13.00,2013-11-28 19:48:00,
2013-11-28 14:53:00,46.2,22.0,30.35,West,270,4.0,8.9,38,0.00,,,0.00,VWS V13.00,2013-11-28 19:53:00,
2013-11-28 14:58:00,46.0,21.8,30.35,West,270,10.0,10.0,38,0.00,,,0.00,VWS V13.00,2013-11-28 19:58:00,
2013-11-28 15:03:00,45.3,21.2,30.35,NNW,338,9.6,9.6,38,0.00,,,0.00,VWS V13.00,2013-11-28 20:03:00,
2013-11-28 15:08:00,44.9,21.5,30.35,NNW,338,2.0,9.6,39,0.00,,,0.00,VWS V13.00,2013-11-28 20:08:00,
2013-11-28 15:14:00,44.9,22.1,30.35,East,90,0.0,9.6,40,0.00,,,0.00,VWS V13.00,2013-11-28 20:14:00,
2013-11-28 15:19:00,44.9,22.1,30.35,West,270,1.5,9.6,40,0.00,,,0.00,VWS V13.00,2013-11-28 20:19:00,
2013-11-28 15:24:00,44.7,21.3,30.35,ENE,68,0.0,4.9,39,0.00,,,0.00,VWS V13.00,2013-11-28 20:24:00,
2013-11-28 15:29:00,44.2,21.4,30.35,NNW,338,2.2,10.5,40,0.00,,,0.00,VWS V13.00,2013-11-28 20:29:00,
2013-11-28 15:34:00,43.7,21.0,30.36,NNW,338,8.9,11.1,40,0.00,,,0.00,VWS V13.00,2013-11-28 20:34:00,
2013-11-28 15:39:00,43.3,21.2,30.36,West,270,0.0,11.1,41,0.00,,,0.00,VWS V13.00,2013-11-28 20:39:00,
2013-11-28 15:44:00,42.6,20.6,30.37,WSW,248,6.7,6.7,41,0.00,,,0.00,VWS V13.00,2013-11-28 20:44:00,
2013-11-28 15:49:00,42.6,21.1,30.37,West,270,7.6,7.6,42,0.00,,,0.00,VWS V13.00,2013-11-28 20:49:00,
2013-11-28 15:54:00,42.4,21.0,30.37,North,0,2.0,7.6,42,0.00,,,0.00,VWS V13.00,2013-11-28 20:54:00,
2013-11-28 15:59:00,42.4,21.5,30.37,NW,315,4.0,8.2,43,0.00,,,0.00,VWS V13.00,2013-11-28 20:59:00,
2013-11-28 16:04:00,42.0,21.1,30.38,West,270,6.0,6.0,43,0.00,,,0.00,VWS V13.00,2013-11-28 21:04:00,
2013-11-28 16:09:00,41.7,20.9,30.38,North,0,2.4,6.0,43,0.00,,,0.00,VWS V13.00,2013-11-28 21:09:00,
2013-11-28 16:14:00,41.1,20.3,30.38,WSW,248,12.5,12.5,43,0.00,,,0.00,VWS V13.00,2013-11-28 21:14:00,
2013-11-28 16:19:00,40.8,20.6,30.38,WSW,248,6.9,12.5,44,0.00,,,0.00,VWS V13.00,2013-11-28 21:19:00,
2013-11-28 16:24:00,40.6,20.4,30.39,WNW,292,3.8,6.7,44,0.00,,,0.00,VWS V13.00,2013-11-28 21:24:00,
2013-11-28 16:29:00,40.1,20.5,30.39,NW,315,0.0,6.7,45,0.00,,,0.00,VWS V13.00,2013-11-28 21:29:00,
2013-11-28 16:34:00,39.7,20.1,30.39,West,270,6.4,6.7,45,0.00,,,0.00,VWS V13.00,2013-11-28 21:34:00,
2013-11-28 16:39:00,39.0,20.0,30.40,NW,315,2.0,6.7,46,0.00,,,0.00,VWS V13.00,2013-11-28 21:39:00,
2013-11-28 16:44:00,38.8,19.8,30.40,West,270,1.3,2.0,46,0.00,,,0.00,VWS V13.00,2013-11-28 21:44:00,
2013-11-28 16:49:00,38.4,19.9,30.40,West,270,0.0,2.0,47,0.00,,,0.00,VWS V13.00,2013-11-28 21:49:00,
2013-11-28 16:54:00,38.3,20.4,30.40,West,270,3.3,3.3,48,0.02,,,0.02,VWS V13.00,2013-11-28 21:54:00,
2013-11-28 16:59:00,38.1,20.2,30.41,West,270,2.4,3.5,48,0.02,,,0.02,VWS V13.00,2013-11-28 21:59:00,
2013-11-28 17:04:00,37.9,20.5,30.41,SSW,202,0.0,1.7,49,0.02,,,0.02,VWS V13.00,2013-11-28 22:04:00,
2013-11-28 17:09:00,37.7,20.3,30.41,West,270,2.9,2.9,49,0.02,,,0.02,VWS V13.00,2013-11-28 22:09:00,
2013-11-28 17:14:00,37.4,20.0,30.41,SSW,202,0.0,2.9,49,0.02,,,0.02,VWS V13.00,2013-11-28 22:14:00,
2013-11-28 17:19:00,37.2,20.3,30.41,West,270,0.0,2.9,50,0.02,,,0.02,VWS V13.00,2013-11-28 22:19:00,
2013-11-28 17:24:00,37.2,20.8,30.42,WNW,292,0.0,0.0,51,0.02,,,0.02,VWS V13.00,2013-11-28 22:24:00,
2013-11-28 17:29:00,37.0,20.6,30.42,WNW,292,2.6,2.6,51,0.02,,,0.02,VWS V13.00,2013-11-28 22:29:00,
2013-11-28 17:34:00,37.0,20.6,30.42,WSW,248,0.0,2.6,51,0.02,,,0.02,VWS V13.00,2013-11-28 22:34:00,
2013-11-28 17:39:00,36.8,20.4,30.43,NW,315,0.6,2.6,51,0.02,,,0.02,VWS V13.00,2013-11-28 22:39:00,
2013-11-28 17:44:00,36.6,20.2,30.43,West,270,0.0,0.6,51,0.02,,,0.02,VWS V13.00,2013-11-28 22:44:00,
2013-11-28 17:49:00,36.6,21.1,30.43,WSW,248,0.0,2.2,53,0.02,,,0.02,VWS V13.00,2013-11-28 22:49:00,
2013-11-28 17:55:00,36.6,21.1,30.44,WNW,292,0.0,2.2,53,0.00,,,0.02,VWS V13.00,2013-11-28 22:55:00,
2013-11-28 18:00:00,36.6,21.1,30.44,WSW,248,0.0,2.2,53,0.00,,,0.02,VWS V13.00,2013-11-28 23:00:00,
2013-11-28 18:05:00,36.5,21.5,30.44,West,270,0.0,2.4,54,0.00,,,0.02,VWS V13.00,2013-11-28 23:05:00,
2013-11-28 18:10:00,36.3,21.3,30.44,WSW,248,1.5,2.4,54,0.00,,,0.02,VWS V13.00,2013-11-28 23:10:00,
2013-11-28 18:15:00,36.3,21.3,30.45,West,270,0.0,3.8,54,0.00,,,0.02,VWS V13.00,2013-11-28 23:15:00,
2013-11-28 18:20:00,36.3,21.7,30.45,SSW,202,0.0,3.8,55,0.00,,,0.02,VWS V13.00,2013-11-28 23:20:00,
2013-11-28 18:25:00,36.1,21.5,30.45,West,270,0.0,0.0,55,0.00,,,0.02,VWS V13.00,2013-11-28 23:25:00,
2013-11-28 18:30:00,36.1,21.9,30.45,SW,225,0.0,0.0,56,0.00,,,0.02,VWS V13.00,2013-11-28 23:30:00,
2013-11-28 18:35:00,35.9,21.8,30.45,WNW,292,0.0,0.0,56,0.00,,,0.02,VWS V13.00,2013-11-28 23:35:00,
2013-11-28 18:40:00,35.9,21.8,30.45,WNW,292,0.0,0.0,56,0.00,,,0.02,VWS V13.00,2013-11-28 23:40:00,
2013-11-28 18:45:00,35.9,21.8,30.45,SE,135,0.0,0.0,56,0.00,,,0.02,VWS V13.00,2013-11-28 23:45:00,
2013-11-28 18:50:00,35.7,21.6,30.46,WSW,248,0.0,0.0,56,0.00,,,0.02,VWS V13.00,2013-11-28 23:50:00,
2013-11-28 18:55:00,35.7,21.6,30.45,North,0,0.0,0.0,56,0.00,,,0.02,VWS V13.00,2013-11-28 23:55:00,
2013-11-28 19:00:00,35.7,21.6,30.46,WNW,292,0.0,0.0,56,0.00,,,0.02,VWS V13.00,2013-11-29 00:00:00,
2013-11-28 19:05:00,35.6,21.5,30.46,WNW,292,0.0,0.0,56,0.00,,,0.02,VWS V13.00,2013-11-29 00:05:00,
2013-11-28 19:10:00,35.4,21.3,30.46,WNW,292,0.0,0.0,56,0.00,,,0.02,VWS V13.00,2013-11-29 00:10:00,
2013-11-28 19:15:00,35.4,21.3,30.46,WNW,292,0.0,0.0,56,0.00,,,0.02,VWS V13.00,2013-11-29 00:15:00,
2013-11-28 19:20:00,35.4,21.3,30.46,SSW,202,0.0,0.0,56,0.00,,,0.02,VWS V13.00,2013-11-29 00:20:00,
2013-11-28 19:25:00,35.4,21.3,30.46,NE,45,0.0,0.0,56,0.00,,,0.02,VWS V13.00,2013-11-29 00:25:00,
2013-11-28 19:30:00,35.4,21.3,30.46,WSW,248,0.0,0.0,56,0.00,,,0.02,VWS V13.00,2013-11-29 00:30:00,
2013-11-28 19:35:00,35.2,21.1,30.46,West,270,2.2,2.2,56,0.00,,,0.02,VWS V13.00,2013-11-29 00:35:00,
2013-11-28 19:40:00,35.2,21.1,30.46,NNW,338,0.0,2.2,56,0.00,,,0.02,VWS V13.00,2013-11-29 00:40:00,
2013-11-28 19:45:00,35.2,21.1,30.46,WNW,292,0.0,0.0,56,0.00,,,0.02,VWS V13.00,2013-11-29 00:45:00,
2013-11-28 19:50:00,35.0,20.9,30.47,NNW,338,0.0,0.0,56,0.00,,,0.02,VWS V13.00,2013-11-29 00:50:00,
2013-11-28 19:55:00,35.2,21.1,30.47,NNW,338,0.0,1.5,56,0.00,,,0.02,VWS V13.00,2013-11-29 00:55:00,
2013-11-28 20:00:00,35.0,20.9,30.47,WNW,292,0.0,1.5,56,0.00,,,0.02,VWS V13.00,2013-11-29 01:00:00,
2013-11-28 20:05:00,34.8,20.7,30.47,West,270,0.0,0.0,56,0.00,,,0.02,VWS V13.00,2013-11-29 01:05:00,
2013-11-28 20:10:00,34.8,20.7,30.47,West,270,0.0,0.0,56,0.00,,,0.02,VWS V13.00,2013-11-29 01:10:00,
2013-11-28 20:15:00,34.8,20.7,30.47,WNW,292,0.0,0.0,56,0.00,,,0.02,VWS V13.00,2013-11-29 01:15:00,
2013-11-28 20:20:00,34.8,21.1,30.48,SSW,202,0.0,0.0,57,0.00,,,0.02,VWS V13.00,2013-11-29 01:20:00,
2013-11-28 20:25:00,34.7,20.6,30.48,West,270,0.0,1.5,56,0.00,,,0.02,VWS V13.00,2013-11-29 01:25:00,
2013-11-28 20:30:00,34.7,21.0,30.47,NNW,338,0.0,1.5,57,0.00,,,0.02,VWS V13.00,2013-11-29 01:30:00,
2013-11-28 20:35:00,34.5,20.9,30.47,NNW,338,0.0,1.5,57,0.00,,,0.02,VWS V13.00,2013-11-29 01:35:00,
2013-11-28 20:40:00,34.5,20.9,30.47,NW,315,0.0,0.0,57,0.00,,,0.02,VWS V13.00,2013-11-29 01:40:00,
2013-11-28 20:46:00,34.7,21.5,30.48,NNW,338,2.2,2.2,58,0.00,,,0.02,VWS V13.00,2013-11-29 01:46:00,
2013-11-28 20:51:00,34.7,21.5,30.48,NNW,338,0.0,2.2,58,0.00,,,0.02,VWS V13.00,2013-11-29 01:51:00,
2013-11-28 20:56:00,34.5,21.3,30.48,NNW,338,0.0,2.2,58,0.00,,,0.02,VWS V13.00,2013-11-29 01:56:00,
2013-11-28 21:01:00,34.7,21.5,30.48,North,0,0.0,0.0,58,0.00,,,0.02,VWS V13.00,2013-11-29 02:01:00,
2013-11-28 21:06:00,34.7,21.9,30.48,NNW,338,0.0,0.0,59,0.00,,,0.02,VWS V13.00,2013-11-29 02:06:00,
2013-11-28 21:11:00,34.8,22.0,30.48,NW,315,0.0,1.3,59,0.00,,,0.02,VWS V13.00,2013-11-29 02:11:00,
2013-11-28 21:16:00,34.8,22.0,30.48,NNW,338,0.0,1.3,59,0.00,,,0.02,VWS V13.00,2013-11-29 02:16:00,
2013-11-28 21:21:00,35.2,22.7,30.48,NNW,338,0.0,0.0,60,0.00,,,0.02,VWS V13.00,2013-11-29 02:21:00,
2013-11-28 21:26:00,35.4,22.5,30.48,NW,315,0.0,0.0,59,0.00,,,0.02,VWS V13.00,2013-11-29 02:26:00,
2013-11-28 21:31:00,35.4,22.5,30.48,WNW,292,0.0,1.3,59,0.00,,,0.02,VWS V13.00,2013-11-29 02:31:00,
2013-11-28 21:36:00,35.4,22.9,30.48,North,0,1.5,1.5,60,0.00,,,0.02,VWS V13.00,2013-11-29 02:36:00,
2013-11-28 21:41:00,35.7,22.8,30.49,NNW,338,1.7,1.7,59,0.00,,,0.02,VWS V13.00,2013-11-29 02:41:00,
2013-11-28 21:46:00,35.7,22.8,30.49,NW,315,0.0,1.7,59,0.00,,,0.02,VWS V13.00,2013-11-29 02:46:00,
2013-11-28 21:51:00,35.9,23.0,30.49,NNW,338,0.0,1.7,59,0.00,,,0.02,VWS V13.00,2013-11-29 02:51:00,
2013-11-28 21:56:00,36.1,23.6,30.50,NW,315,0.0,1.7,60,0.00,,,0.02,VWS V13.00,2013-11-29 02:56:00,
2013-11-28 22:01:00,36.1,23.2,30.50,NNW,338,0.0,0.0,59,0.00,,,0.02,VWS V13.00,2013-11-29 03:01:00,
2013-11-28 22:06:00,36.1,23.2,30.50,North,0,0.0,0.0,59,0.00,,,0.02,VWS V13.00,2013-11-29 03:06:00,
2013-11-28 22:11:00,36.3,23.4,30.50,North,0,0.0,2.2,59,0.00,,,0.02,VWS V13.00,2013-11-29 03:11:00,
2013-11-28 22:16:00,36.3,23.4,30.50,North,0,0.0,2.2,59,0.00,,,0.02,VWS V13.00,2013-11-29 03:16:00,
2013-11-28 22:21:00,36.3,23.4,30.50,NW,315,1.3,1.3,59,0.00,,,0.02,VWS V13.00,2013-11-29 03:21:00,
2013-11-28 22:26:00,36.3,23.4,30.50,NW,315,0.0,1.3,59,0.00,,,0.02,VWS V13.00,2013-11-29 03:26:00,
2013-11-28 22:31:00,36.3,23.4,30.51,NNE,22,0.0,1.3,59,0.00,,,0.02,VWS V13.00,2013-11-29 03:31:00,
2013-11-28 22:36:00,36.3,23.0,30.51,North,0,0.0,1.3,58,0.00,,,0.02,VWS V13.00,2013-11-29 03:36:00,
2013-11-28 22:41:00,36.3,22.5,30.51,NNW,338,0.0,0.0,57,0.00,,,0.02,VWS V13.00,2013-11-29 03:41:00,
2013-11-28 22:46:00,36.3,22.5,30.51,NW,315,0.0,0.0,57,0.00,,,0.02,VWS V13.00,2013-11-29 03:46:00,
2013-11-28 22:51:00,36.3,22.5,30.50,North,0,2.4,2.4,57,0.00,,,0.02,VWS V13.00,2013-11-29 03:51:00,
2013-11-28 22:56:00,36.3,22.5,30.50,NW,315,0.0,2.4,57,0.00,,,0.02,VWS V13.00,2013-11-29 03:56:00,
2013-11-28 23:01:00,36.3,22.5,30.51,North,0,0.0,1.3,57,0.00,,,0.02,VWS V13.00,2013-11-29 04:01:00,
2013-11-28 23:06:00,36.3,22.5,30.51,NW,315,2.0,2.0,57,0.00,,,0.02,VWS V13.00,2013-11-29 04:06:00,
2013-11-28 23:12:00,36.5,22.7,30.51,NNW,338,0.0,2.0,57,0.00,,,0.02,VWS V13.00,2013-11-29 04:12:00,
2013-11-28 23:17:00,36.5,22.7,30.52,NW,315,1.5,2.0,57,0.00,,,0.02,VWS V13.00,2013-11-29 04:17:00,
2013-11-28 23:22:00,36.5,22.7,30.51,NNW,338,1.3,1.3,57,0.00,,,0.02,VWS V13.00,2013-11-29 04:22:00,
2013-11-28 23:27:00,36.5,22.7,30.51,NNW,338,2.4,2.9,57,0.00,,,0.02,VWS V13.00,2013-11-29 04:27:00,
2013-11-28 23:32:00,36.5,22.7,30.51,NNW,338,1.3,2.9,57,0.00,,,0.02,VWS V13.00,2013-11-29 04:32:00,
2013-11-28 23:37:00,36.5,22.7,30.51,NNW,338,1.3,2.9,57,0.00,,,0.02,VWS V13.00,2013-11-29 04:37:00,
2013-11-28 23:42:00,36.5,22.7,30.51,NW,315,1.3,1.3,57,0.00,,,0.02,VWS V13.00,2013-11-29 04:42:00,
2013-11-28 23:47:00,36.5,22.7,30.51,West,270,0.0,1.3,57,0.00,,,0.02,VWS V13.00,2013-11-29 04:47:00,
2013-11-28 23:52:00,36.5,22.7,30.51,NNW,338,0.6,2.0,57,0.00,,,0.02,VWS V13.00,2013-11-29 04:52:00,
2013-11-28 23:57:00,36.5,22.7,30.51,NW,315,0.0,2.0,57,0.00,,,0.02,VWS V13.00,2013-11-29 04:57:00,